TimeGMT,TemperatureF,Dew PointF,Humidity,Sea Level PressureIn,VisibilityMPH,Wind Direction,Wind SpeedMPH,Gust SpeedMPH,PrecipitationIn,Events,Conditions,WindDirDegrees,DateUTC
12:00 AM,39,39,98,29.26,7,North,4.5,,,Rain,Light Drizzle,0,2013-02-11 00:00:00
12:00 AM,39.2,39.2,100,29.24,6.2,North,4.6,-,N/A,,Light Drizzle,350,2013-02-11 00:00:00
12:30 AM,39.2,39.2,100,29.24,6.2,Variable,3.5,-,N/A,,Light Drizzle,0,2013-02-11 00:30:00
1:00 AM,39.2,39.2,100,29.27,4.3,ENE,12.7,-,N/A,Rain,Light Rain,60,2013-02-11 01:00:00
1:30 AM,39.2,37.4,93,29.27,5.6,ENE,12.7,-,N/A,Rain,Light Rain,60,2013-02-11 01:30:00
2:00 AM,39.2,37.4,93,29.30,6.2,NE,11.5,-,N/A,Rain,Light Rain,50,2013-02-11 02:00:00
2:30 AM,39.2,37.4,93,29.30,6.2,NE,12.7,-,N/A,,Light Drizzle,40,2013-02-11 02:30:00
3:00 AM,39.2,35.6,87,29.30,6.2,NE,13.8,-,N/A,,Mostly Cloudy,40,2013-02-11 03:00:00
3:30 AM,39.2,35.6,87,29.33,6.2,NE,13.8,-,N/A,,Mostly Cloudy,50,2013-02-11 03:30:00
4:00 AM,37.4,35.6,93,29.33,6.2,NE,13.8,-,N/A,,Mostly Cloudy,50,2013-02-11 04:00:00
4:30 AM,39.2,35.6,87,29.33,6.2,NE,12.7,-,N/A,,Mostly Cloudy,50,2013-02-11 04:30:00
5:00 AM,37.4,35.6,93,29.36,6.2,NE,12.7,-,N/A,,Mostly Cloudy,50,2013-02-11 05:00:00
5:30 AM,37.4,35.6,93,29.39,6.2,NE,12.7,-,N/A,,Mostly Cloudy,40,2013-02-11 05:30:00
6:00 AM,38,35,87,29.40,11,NE,13.4,,,Rain,Light Drizzle,40,2013-02-11 06:00:00
6:00 AM,39.2,35.6,87,29.39,6.2,NE,13.8,-,N/A,,Mostly Cloudy,40,2013-02-11 06:00:00
6:30 AM,39.2,35.6,87,29.39,6.2,NE,11.5,-,N/A,,Mostly Cloudy,40,2013-02-11 06:30:00
7:00 AM,39.2,35.6,87,29.42,5.6,ENE,12.7,-,N/A,,Light Drizzle,60,2013-02-11 07:00:00
7:30 AM,37.4,37.4,100,29.44,4.3,ENE,10.4,-,N/A,,Light Drizzle,60,2013-02-11 07:30:00
8:00 AM,37.4,37.4,100,29.44,5.0,NE,9.2,-,N/A,,Light Drizzle,50,2013-02-11 08:00:00
8:30 AM,37.4,37.4,100,29.47,5.0,NE,9.2,-,N/A,,Light Drizzle,50,2013-02-11 08:30:00
9:00 AM,37.4,35.6,93,29.47,5.0,ENE,10.4,-,N/A,,Light Drizzle,70,2013-02-11 09:00:00
9:30 AM,37.4,35.6,93,29.50,3.7,ENE,10.4,-,N/A,,Light Drizzle,70,2013-02-11 09:30:00
10:00 AM,37.4,35.6,93,29.50,3.7,ENE,10.4,-,N/A,,Light Drizzle,70,2013-02-11 10:00:00
10:30 AM,37.4,35.6,93,29.53,6.2,ENE,6.9,-,N/A,,Light Drizzle,60,2013-02-11 10:30:00
11:00 AM,39.2,35.6,87,29.53,6.2,ENE,9.2,-,N/A,,Mostly Cloudy,70,2013-02-11 11:00:00
11:30 AM,39.2,35.6,87,29.56,6.2,ENE,10.4,-,N/A,,Mostly Cloudy,60,2013-02-11 11:30:00
12:00 PM,39,36,83,29.59,11,ENE,11.2,,,Rain,Light Drizzle,60,2013-02-11 12:00:00
12:00 PM,39.2,35.6,87,29.56,6.2,ENE,10.4,-,N/A,,Mostly Cloudy,60,2013-02-11 12:00:00
12:30 PM,39.2,35.6,87,29.56,6.2,ENE,11.5,-,N/A,,Mostly Cloudy,60,2013-02-11 12:30:00
1:00 PM,39.2,35.6,87,29.59,6.2,ENE,10.4,-,N/A,,Mostly Cloudy,60,2013-02-11 13:00:00
1:30 PM,39.2,33.8,81,29.59,6.2,ENE,8.1,-,N/A,,Light Drizzle,60,2013-02-11 13:30:00
2:00 PM,39.2,33.8,81,29.62,6.2,NE,9.2,-,N/A,,Mostly Cloudy,50,2013-02-11 14:00:00
2:30 PM,39.2,33.8,81,29.62,6.2,NE,9.2,-,N/A,,Mostly Cloudy,50,2013-02-11 14:30:00
3:00 PM,39.2,33.8,81,29.62,6.2,NE,8.1,-,N/A,,Mostly Cloudy,40,2013-02-11 15:00:00
3:30 PM,39.2,33.8,81,29.62,6.2,NE,9.2,-,N/A,,Mostly Cloudy,50,2013-02-11 15:30:00
4:00 PM,39.2,33.8,81,29.65,6.2,NE,9.2,-,N/A,,Mostly Cloudy,50,2013-02-11 16:00:00
4:30 PM,39.2,33.8,81,29.65,6.2,ENE,9.2,-,N/A,,Mostly Cloudy,60,2013-02-11 16:30:00
5:00 PM,39.2,35.6,87,29.68,5.6,East,11.5,-,N/A,,Mostly Cloudy,80,2013-02-11 17:00:00
5:30 PM,37.4,35.6,93,29.68,4.3,ENE,9.2,-,N/A,,Light Drizzle,70,2013-02-11 17:30:00
6:00 PM,38,37,95,29.71,4,East,8.9,,,Rain,Light Drizzle,90,2013-02-11 18:00:00
6:00 PM,37.4,37.4,100,29.68,3.7,East,8.1,-,N/A,,Light Drizzle,90,2013-02-11 18:00:00
6:30 PM,37.4,37.4,100,29.71,2.8,East,8.1,-,N/A,,Light Drizzle,90,2013-02-11 18:30:00
7:00 PM,37.4,37.4,100,29.71,2.5,East,6.9,-,N/A,,Light Drizzle,100,2013-02-11 19:00:00
7:30 PM,37.4,37.4,100,29.71,2.8,East,6.9,-,N/A,,Light Drizzle,90,2013-02-11 19:30:00
8:00 PM,37.4,37.4,100,29.74,2.8,East,9.2,-,N/A,Rain,Light Rain,90,2013-02-11 20:00:00
8:30 PM,37.4,37.4,100,29.74,3.7,East,6.9,-,N/A,Rain,Light Rain,80,2013-02-11 20:30:00
9:00 PM,37.4,37.4,100,29.77,3.7,East,8.1,-,N/A,Rain,Light Rain,100,2013-02-11 21:00:00
9:30 PM,37.4,37.4,100,29.77,4.3,East,4.6,-,N/A,Rain,Light Rain,100,2013-02-11 21:30:00
10:00 PM,37.4,37.4,100,29.77,4.3,East,6.9,-,N/A,Rain,Light Rain,90,2013-02-11 22:00:00
11:00 PM,37.4,37.4,100,29.80,5.0,East,5.8,-,N/A,,Light Drizzle,80,2013-02-11 23:00:00
11:30 PM,37.4,37.4,100,29.80,5.0,East,5.8,-,N/A,,Light Drizzle,100,2013-02-11 23:30:00